When you browse on this site, cookies collect data to enhance your experience and personalize the content and advertising you see.
Visit our Privacy Policy to learn more. By continuing to use the site, you agree to this use of cookies and data.
  • En España
  • Lista de países
  • Para 7 días
  • Temperatura del agua
  • Mapa Satelital
  • El tiempo en el mapa
  • Informadores
  • user-avatar
    Iniciar sesión

    Tiempo cada hora Tyrgowishte

    Hoy, 18 Enero, Viernes

    Tiempo Temperatura Precipitaciones Viento Presión Humedad
    00:00 +2°C° 0 mm 2 mps 744 mmHg 75%
    01:00 +2°C° 0 mm 2 mps 744 mmHg 76%
    02:00 +3°C° 0 mm 1 mps 743 mmHg 77%
    03:00 +3°C° 0 mm 1 mps 743 mmHg 77%
    04:00 +3°C° 0 mm 1 mps 743 mmHg 78%
    05:00 +3°C° 0 mm 1 mps 743 mmHg 79%
    06:00 +3°C° 0 mm 1 mps 743 mmHg 79%
    07:00 +3°C° 0 mm 1 mps 743 mmHg 79%
    08:00 +3°C° 0 mm 1 mps 743 mmHg 79%
    09:00 +4°C° 0 mm 1 mps 743 mmHg 76%
    10:00 +6°C° 0 mm 1 mps 743 mmHg 73%
    11:00 +7°C° 0 mm 1 mps 743 mmHg 70%
    12:00 +8°C° 0 mm 1 mps 743 mmHg 68%
    13:00 +8°C° 0 mm 1 mps 743 mmHg 67%
    14:00 +9°C° 0 mm 1 mps 743 mmHg 66%
    15:00 +8°C° 0 mm 1 mps 743 mmHg 69%
    16:00 +7°C° 0 mm 1 mps 742 mmHg 73%
    17:00 +6°C° 0 mm 1 mps 742 mmHg 76%
    18:00 +5°C° 0 mm 1 mps 742 mmHg 75%
    19:00 +5°C° 0 mm 1 mps 743 mmHg 75%
    20:00 +5°C° 0 mm 1 mps 743 mmHg 74%
    21:00 +5°C° 0 mm 1 mps 743 mmHg 72%
    22:00 +5°C° 0 mm 1 mps 743 mmHg 70%
    23:00 +5°C° 0 mm 1 mps 743 mmHg 68%

    Mañana, 19 Enero, Sábado

    Tiempo Temperatura Precipitaciones Viento Presión Humedad
    00:00 +5°C° 0 mm 1 mps 743 mmHg 68%
    01:00 +3°C° 0 mm 2 mps 744 mmHg 69%
    02:00 +3°C° 0 mm 2 mps 744 mmHg 69%
    03:00 +3°C° 0 mm 2 mps 744 mmHg 72%
    04:00 +3°C° 0 mm 2 mps 744 mmHg 76%
    05:00 +2°C° 0 mm 2 mps 745 mmHg 80%
    06:00 +2°C° 0.2 mm 2 mps 745 mmHg 83%
    07:00 +2°C° 0.2 mm 2 mps 746 mmHg 87%
    08:00 +2°C° 0.2 mm 2 mps 746 mmHg 90%
    09:00 +2°C° 0.3 mm 2 mps 747 mmHg 90%
    10:00 +3°C° 0.3 mm 1 mps 747 mmHg 90%
    11:00 +4°C° 0.3 mm 1 mps 748 mmHg 89%
    12:00 +4°C° 0.1 mm 1 mps 748 mmHg 88%
    13:00 +3°C° 0.1 mm 2 mps 748 mmHg 87%
    14:00 +3°C° 0.1 mm 2 mps 747 mmHg 86%
    15:00 +3°C° 0 mm 2 mps 748 mmHg 88%
    16:00 +3°C° 0 mm 2 mps 748 mmHg 89%
    17:00 +2°C° 0 mm 2 mps 748 mmHg 90%
    18:00 +1°C° 0 mm 3 mps 748 mmHg 91%
    19:00 +1°C° 0 mm 3 mps 748 mmHg 91%
    20:00 +1°C° 0 mm 3 mps 749 mmHg 91%
    21:00 +1°C° 0 mm 3 mps 749 mmHg 92%
    22:00 +1°C° 0 mm 3 mps 749 mmHg 93%
    23:00 +1°C° 0 mm 3 mps 749 mmHg 93%

    Pasado mañana, 20 Enero, Domingo

    Tiempo Temperatura Precipitaciones Viento Presión Humedad
    00:00 +1°C° 0 mm 3 mps 749 mmHg 94%
    01:00 0°C° 0 mm 3 mps 748 mmHg 95%
    02:00 0°C° 0 mm 3 mps 748 mmHg 96%
    03:00 +1°C° 0 mm 2 mps 748 mmHg 96%
    04:00 +1°C° 0 mm 2 mps 747 mmHg 96%
    05:00 +2°C° 0 mm 2 mps 747 mmHg 97%
    06:00 +2°C° 0.1 mm 2 mps 747 mmHg 96%
    07:00 +2°C° 0.1 mm 2 mps 747 mmHg 96%
    08:00 +2°C° 0.1 mm 2 mps 747 mmHg 96%
    09:00 +3°C° 0 mm 2 mps 747 mmHg 96%
    10:00 +2°C° 0 mm 3 mps 746 mmHg 95%
    11:00 +3°C° 0 mm 3 mps 746 mmHg 94%
    12:00 +3°C° 0 mm 3 mps 746 mmHg 94%
    13:00 +4°C° 0 mm 3 mps 745 mmHg 93%
    14:00 +4°C° 0 mm 3 mps 745 mmHg 93%
    15:00 +4°C° 0 mm 3 mps 744 mmHg 94%
    16:00 +5°C° 0 mm 2 mps 744 mmHg 95%
    17:00 +4°C° 0 mm 2 mps 744 mmHg 96%
    18:00 +4°C° 0 mm 2 mps 744 mmHg 96%
    19:00 +4°C° 0 mm 2 mps 743 mmHg 96%
    20:00 +5°C° 0 mm 1 mps 743 mmHg 96%
    21:00 +5°C° 0.1 mm 1 mps 743 mmHg 96%
    22:00 +5°C° 0.1 mm 1 mps 743 mmHg 96%
    23:00 +5°C° 0.1 mm 1 mps 743 mmHg 96%

    21 Enero, Lunes

    Tiempo Temperatura Precipitaciones Viento Presión Humedad
    00:00 +4°C° 0.4 mm 1 mps 743 mmHg 96%
    01:00 +3°C° 0.4 mm 2 mps 743 mmHg 96%
    02:00 +3°C° 0.4 mm 2 mps 743 mmHg 97%
    03:00 +3°C° 0.2 mm 2 mps 743 mmHg 96%
    04:00 +1°C° 0.2 mm 3 mps 743 mmHg 96%
    05:00 +1°C° 0.2 mm 3 mps 743 mmHg 95%
    06:00 0°C° 0 mm 4 mps 744 mmHg 94%
    07:00 0°C° 0 mm 4 mps 744 mmHg 93%
    08:00 0°C° 0 mm 4 mps 744 mmHg 93%
    09:00 0°C° 0 mm 4 mps 745 mmHg 90%
    10:00 +1°C° 0 mm 4 mps 745 mmHg 87%
    11:00 +3°C° 0 mm 4 mps 746 mmHg 83%
    12:00 +3°C° 0 mm 3 mps 746 mmHg 80%
    13:00 +4°C° 0 mm 3 mps 746 mmHg 77%
    14:00 +4°C° 0 mm 3 mps 746 mmHg 74%
    15:00 +5°C° 0 mm 2 mps 746 mmHg 77%
    16:00 +4°C° 0 mm 2 mps 747 mmHg 80%
    17:00 +5°C° 0 mm 1 mps 747 mmHg 83%
    18:00 +4°C° 0 mm 1 mps 747 mmHg 85%
    19:00 +2°C° 0 mm 2 mps 748 mmHg 86%
    20:00 +2°C° 0 mm 2 mps 749 mmHg 88%
    21:00 +1°C° 0 mm 2 mps 749 mmHg 88%
    22:00 +1°C° 0 mm 2 mps 749 mmHg 89%
    23:00 -1°C° 0 mm 2 mps 749 mmHg 89%

    22 Enero, Martes

    Tiempo Temperatura Precipitaciones Viento Presión Humedad
    00:00 -1°C° 0 mm 2 mps 749 mmHg 86%
    01:00 -1°C° 0 mm 2 mps 749 mmHg 84%
    02:00 -1°C° 0 mm 2 mps 749 mmHg 81%
    03:00 -1°C° 0 mm 2 mps 749 mmHg 80%
    04:00 -1°C° 0 mm 3 mps 749 mmHg 79%
    05:00 -1°C° 0 mm 3 mps 749 mmHg 78%
    06:00 -1°C° 0 mm 3 mps 749 mmHg 79%
    07:00 -1°C° 0 mm 3 mps 749 mmHg 81%
    08:00 -1°C° 0 mm 3 mps 749 mmHg 82%
    09:00 0°C° 0 mm 3 mps 749 mmHg 81%
    10:00 0°C° 0 mm 4 mps 748 mmHg 80%
    11:00 +1°C° 0 mm 4 mps 748 mmHg 80%
    12:00 +1°C° 0 mm 4 mps 748 mmHg 81%
    13:00 +3°C° 0 mm 4 mps 747 mmHg 82%
    14:00 +3°C° 0 mm 4 mps 746 mmHg 83%
    15:00 +3°C° 0 mm 4 mps 746 mmHg 86%
    16:00 +1°C° 0 mm 4 mps 745 mmHg 89%
    17:00 +1°C° 0 mm 4 mps 745 mmHg 92%
    18:00 +1°C° 0 mm 4 mps 744 mmHg 92%
    19:00 +1°C° 0 mm 4 mps 744 mmHg 93%
    20:00 +1°C° 0 mm 4 mps 743 mmHg 93%
    21:00 +1°C° 0.1 mm 4 mps 743 mmHg 93%
    22:00 +3°C° 0.1 mm 4 mps 742 mmHg 93%
    23:00 +3°C° 0.1 mm 4 mps 742 mmHg 93%

    23 Enero, Miércoles

    Tiempo Temperatura Precipitaciones Viento Presión Humedad
    00:00 +2°C° 0.1 mm 5 mps 741 mmHg 93%
    01:00 +2°C° 0.1 mm 5 mps 741 mmHg 93%
    02:00 +3°C° 0.1 mm 5 mps 740 mmHg 93%
    03:00 +4°C° 0.2 mm 4 mps 739 mmHg 94%
    04:00 +4°C° 0.2 mm 4 mps 739 mmHg 94%
    05:00 +4°C° 0.2 mm 3 mps 738 mmHg 95%
    06:00 +4°C° 0.8 mm 3 mps 738 mmHg 95%
    07:00 +4°C° 0.8 mm 3 mps 738 mmHg 95%
    08:00 +4°C° 0.8 mm 3 mps 737 mmHg 96%
    09:00 +4°C° 0.5 mm 3 mps 737 mmHg 95%
    10:00 +5°C° 0.5 mm 3 mps 737 mmHg 94%
    11:00 +5°C° 0.5 mm 3 mps 737 mmHg 93%
    12:00 +7°C° 0.1 mm 3 mps 736 mmHg 89%
    13:00 +8°C° 0.1 mm 3 mps 736 mmHg 86%
    14:00 +9°C° 0.1 mm 3 mps 735 mmHg 82%
    15:00 +8°C° 1.4 mm 2 mps 735 mmHg 86%
    16:00 +8°C° 1.4 mm 2 mps 735 mmHg 91%
    17:00 +8°C° 1.4 mm 1 mps 734 mmHg 96%
    18:00 +8°C° 3.7 mm 1 mps 734 mmHg 96%
    19:00 +7°C° 3.7 mm 1 mps 734 mmHg 97%
    20:00 +7°C° 3.7 mm 1 mps 734 mmHg 97%
    21:00 +6°C° 0.1 mm 2 mps 734 mmHg 96%
    22:00 +6°C° 0.1 mm 2 mps 734 mmHg 96%
    23:00 +4°C° 0.1 mm 3 mps 734 mmHg 95%
    Mostrar más